This demonstration page uses our WeatherBlox Daily Observations layout. Learn more.

Hourly Observations for August 29, 2015

Temp ( °F °C ) Dew Point ( °F °C ) Humidity (%) Winds ( mph kmh ) Pressure ( in mb ) Visibility ( mi km ) Precip ( " mm )
12:15 am 00:15 Clear 61 16 59 15 94 94 W 3 6 30.03 1017 10 16.09344 0 0
12:35 am 00:35 Clear 61 16 59 15 94 94 W 5 7 30.03 1017 10 16.09344 0 0
12:55 am 00:55 Clear 61 16 59 15 94 94 WNW 5 7 30.06 1018 10 16.09344 0 0
1:15 am 01:15 Clear 59 15 57 14 94 94 WNW 6 9 30.06 1018 10 16.09344 0 0
1:35 am 01:35 Clear 59 15 57 14 94 94 WNW 5 7 30.06 1018 10 16.09344 0 0
1:55 am 01:55 Clear 59 15 57 14 94 94 WNW 3 6 30.03 1017 10 16.09344 0 0
2:15 am 02:15 Clear 59 15 57 14 94 94 WNW 5 7 30.06 1018 10 16.09344 0 0
2:35 am 02:35 Clear 59 15 55 13 88 88 NW 6 9 30.06 1018 10 16.09344 0 0
2:55 am 02:55 Clear 57 14 55 13 94 94 W 3 6 30.03 1017 10 16.09344 0 0
3:15 am 03:15 Clear 59 15 57 14 94 94 W 7 11 30.06 1018 10 16.09344 0 0
3:35 am 03:35 Clear 59 15 55 13 88 88 WNW 5 7 30.03 1017 10 16.09344 0 0
3:55 am 03:55 Clear 57 14 55 13 94 94 Calm 30.06 1018 10 16.09344 0 0
4:15 am 04:15 Clear 57 14 55 13 94 94 Calm 30.06 1018 10 16.09344 0 0
4:35 am 04:35 Clear with Mist and Fog 55 13 55 13 100 100 Calm 30.06 1018 5 8.04672 0 0
4:55 am 04:55 Clear with Mist and Fog 54 12 54 12 100 100 Calm 30.09 1019 5 8.04672 0 0
5:15 am 05:15 Clear 55 13 54 12 94 94 Calm 30.09 1019 7 11.265408 0 0
5:35 am 05:35 Clear with Mist and Fog 55 13 54 12 94 94 Calm 30.09 1019 4 6.437376 0 0
5:55 am 05:55 Clear with Mist and Fog 55 13 54 12 94 94 Calm 30.09 1019 4 6.437376 0 0
6:15 am 06:15 Clear with Mist and Fog 54 12 54 12 100 100 Calm 30.09 1019 4 6.437376 0 0
6:35 am 06:35 Clear with Mist and Fog 54 12 54 12 100 100 Calm 30.09 1019 3 4.828032 0 0
6:55 am 06:55 Mostly Cloudy with Mist and Fog 54 12 54 12 100 100 Calm 30.09 1019 1.75 2.816352 0 0
7:15 am 07:15 Sunny with Mist and Fog 54 12 54 12 100 100 Calm 30.12 1020 2.5 4.02336 0 0
7:35 am 07:35 Mostly Cloudy with Mist and Fog 55 13 54 12 94 94 NW 3 6 30.12 1020 1 1.609344 0 0
7:55 am 07:55 Sunny with Mist and Fog 55 13 55 13 100 100 NW 5 7 30.12 1020 2.5 4.02336 0 0
8:15 am 08:15 Sunny with Mist and Fog 57 14 55 13 94 94 NNW 5 7 30.09 1019 3 4.828032 0 0
8:35 am 08:35 Sunny with Mist and Fog 59 15 57 14 94 94 Calm 30.09 1019 5 8.04672 0 0
8:55 am 08:55 Sunny 61 16 59 15 94 94 Calm 30.09 1019 7 11.265408 0 0
9:15 am 09:15 Sunny 63 17 61 16 94 94 N 5 7 30.09 1019 10 16.09344 0 0
9:35 am 09:35 Sunny 64 18 63 17 94 94 N 3 6 30.06 1018 10 16.09344 0 0
9:55 am 09:55 Sunny 66 19 61 16 83 83 NNW 3 6 30.06 1018 10 16.09344 0 0
10:15 am 10:15 Sunny 68 20 63 17 83 83 N 3 6 30.06 1018 10 16.09344 0 0
10:35 am 10:35 Sunny 70 21 63 17 78 78 N 5 7 30.03 1017 10 16.09344 0 0
10:55 am 10:55 Sunny 70 21 63 17 78 78 N 3 6 30.03 1017 10 16.09344 0 0
11:15 am 11:15 Sunny 72 22 63 17 73 73 Calm 30.03 1017 10 16.09344 0 0
11:35 am 11:35 Sunny 73 23 63 17 69 69 N 3 6 30.03 1017 10 16.09344 0 0
11:55 am 11:55 Sunny 75 24 63 17 65 65 NW 5 7 30.03 1017 10 16.09344 0 0
12:15 pm 12:15 Sunny 75 24 63 17 65 65 NNW 3 6 30.03 1017 10 16.09344 0 0
12:35 pm 12:35 Sunny 77 25 63 17 61 61 NNW 5 7 30 1016 10 16.09344 0 0
12:55 pm 12:55 Sunny 77 25 63 17 61 61 NW 3 6 30 1016 10 16.09344 0 0
1:15 pm 13:15 Sunny 79 26 63 17 58 58 NW 5 7 30 1016 10 16.09344 0 0
1:35 pm 13:35 Sunny 79 26 63 17 58 58 Calm 30 1016 10 16.09344 0 0
1:55 pm 13:55 Sunny 79 26 63 17 58 58 N 3 6 29.97 1015 10 16.09344 0 0
2:15 pm 14:15 Sunny 81 27 61 16 51 51 N 3 6 29.97 1015 10 16.09344 0 0
2:35 pm 14:35 Sunny 81 27 61 16 51 51 Calm 29.97 1015 10 16.09344 0 0
2:55 pm 14:55 Sunny 81 27 63 17 54 54 NE 5 7 29.97 1015 10 16.09344 0 0
3:15 pm 15:15 Sunny 82 28 61 16 48 48 ENE 6 9 29.94 1014 10 16.09344 0 0
3:35 pm 15:35 Sunny 82 28 61 16 48 48 E 6 9 29.94 1014 10 16.09344 0 0
3:55 pm 15:55 Sunny 82 28 61 16 48 48 E 5 7 29.94 1014 10 16.09344 0 0
4:15 pm 16:15 Sunny 82 28 63 17 51 51 E 7 11 29.91 1013 10 16.09344 0 0
4:35 pm 16:35 Sunny 82 28 63 17 51 51 E 5 7 29.91 1013 10 16.09344 0 0
4:55 pm 16:55 Sunny 82 28 63 17 51 51 E 7 11 29.91 1013 10 16.09344 0 0
5:15 pm 17:15 Sunny 82 28 63 17 51 51 ESE 7 11 29.91 1013 10 16.09344 0 0
5:35 pm 17:35 Sunny 82 28 59 15 45 45 E 7 11 29.91 1013 10 16.09344 0 0
5:55 pm 17:55 Sunny 81 27 61 16 51 51 ESE 8 13 29.94 1014 10 16.09344 0 0
6:15 pm 18:15 Sunny 81 27 63 17 54 54 ESE 7 11 29.94 1014 10 16.09344 0 0
6:35 pm 18:35 Sunny 81 27 63 17 54 54 ESE 7 11 29.94 1014 10 16.09344 0 0
6:55 pm 18:55 Sunny 79 26 61 16 54 54 ESE 6 9 29.94 1014 10 16.09344 0 0
7:15 pm 19:15 Sunny 77 25 63 17 61 61 ESE 6 9 29.94 1014 10 16.09344 0 0
7:35 pm 19:35 Sunny 75 24 63 17 65 65 SE 6 9 29.94 1014 10 16.09344 0 0
7:55 pm 19:55 Sunny 73 23 63 17 69 69 SE 6 9 29.97 1015 10 16.09344 0 0
8:15 pm 20:15 Clear 70 21 63 17 78 78 SE 5 7 29.94 1014 10 16.09344 0 0
8:35 pm 20:35 Clear 68 20 63 17 83 83 SE 3 6 30 1016 10 16.09344 0 0
8:55 pm 20:55 Clear 68 20 63 17 83 83 SSE 3 6 30 1016 10 16.09344 0 0
9:15 pm 21:15 Clear 64 18 61 16 88 88 Calm 30 1016 10 16.09344 0 0
9:35 pm 21:35 Clear 63 17 59 15 88 88 SE 6 9 30 1016 10 16.09344 0 0
9:55 pm 21:55 Clear 64 18 59 15 83 83 SE 7 11 30 1016 10 16.09344 0 0
10:15 pm 22:15 Clear 64 18 59 15 83 83 SE 7 11 30 1016 10 16.09344 0 0
10:35 pm 22:35 Clear 64 18 59 15 83 83 SSE 7 11 30 1016 10 16.09344 0 0
10:55 pm 22:55 Clear 63 17 57 14 83 83 SSE 7 11 30 1016 10 16.09344 0 0
11:15 pm 23:15 Clear 63 17 57 14 83 83 SSE 7 11 30 1016 10 16.09344 0 0
11:35 pm 23:35 Clear 63 17 57 14 83 83 SSE 7 11 30 1016 10 16.09344 0 0
11:55 pm 23:55 Clear 63 17 57 14 83 83 S 3 6 30 1016 10 16.09344 0 0

Powered by AerisWeather